Weather History for CYXH - February, 2013

Change the Weather History Date:

Thursday, February 28, 2013

  Actual Average Record
Temperature  
Mean Temperature -4 °F -  
Max Temperature 42 °F 39 °F 57 °F (1999)
Min Temperature -50 °F 18 °F -50 °F (2013)
Degree Days  
Heating Degree Days 69    
Moisture  
Dew Point 8 °F    
Average Humidity 65    
Maximum Humidity 100    
Minimum Humidity 34    
Precipitation  
Precipitation 0.00 in 0.02 in - ()
Sea Level Pressure  
Sea Level Pressure 30.26 in    
Wind  
Wind Speed 4 mph ()    
Max Wind Speed 13 mph    
Max Gust Speed -    
Visibility 10.8 miles    
Events      
Averages and records for this station are not official NWS values.
T = Trace of Precipitation, MM = Missing Value Source: Averaged Metar Reports

Daily Weather History Graph

Daily Weather History Graph

Search for Another Location

Airport or City:

Trip Planner

Search our weather history database for the weather conditions in past years. The results will help you decide how hot, cold, wet, or windy it might be!

Date:

Astronomy

Feb. 28, 2013 Rise Set
Actual Time 7:07 AM MST 6:04 PM MST
Civil Twilight 6:35 AM MST 6:36 PM MST
Nautical Twilight 5:57 AM MST 7:13 PM MST
Astronomical Twilight 5:20 AM MST 7:51 PM MST
Moon 10:01 PM MST 7:56 AM MST
Length of Visible Light 12h 01m
Length of Day
10h 56m
Waning Gibbous, 90% of the Moon is Illuminated
Feb 28
Waning Gibbous
Mar 4
Last Quarter
Mar 11
New
Mar 19
First Quarter
Mar 27
Full

Hourly Weather History & Observations

Time (MST) Temp. Windchill Dew Point Humidity Pressure Visibility Wind Dir Wind Speed Gust Speed Precip Events Conditions
12:00 AM 19.4 °F 12.8 °F 17.6 °F 93% 30.20 in 9.0 mi SW 4.6 mph - N/A   Clear
1:00 AM 19.4 °F 11.5 °F 17.6 °F 93% 30.21 in 9.0 mi WSW 5.8 mph - N/A   Clear
2:00 AM 19.4 °F - 19.4 °F 100% 30.22 in 9.0 mi SSW 2.3 mph - N/A   Clear
4:00 AM 17.6 °F - 17.6 °F 100% 30.18 in 9.0 mi SE 2.3 mph - N/A   Overcast
5:00 AM -46 °F - -54 °F 41% 30.51 in - South 3.5 mph - -  
6:00 AM 23.0 °F - 19.4 °F 86% 30.20 in 15.0 mi Calm Calm - N/A   Overcast
7:00 AM 23.0 °F 18.4 °F 19.4 °F 86% 30.19 in 30.0 mi South 3.5 mph - N/A   Mostly Cloudy
8:00 AM 24.8 °F 16.9 °F 21.2 °F 86% 30.20 in 30.0 mi SW 6.9 mph - N/A   Mostly Cloudy
9:00 AM 30.2 °F 21.3 °F 23.0 °F 75% 30.21 in 30.0 mi SW 10.4 mph - N/A   Mostly Cloudy
11:00 AM -46 °F - -55 °F 40% 30.48 in - WSW 1.2 mph - -  
11:00 AM 35.6 °F 29.9 °F 24.8 °F 65% 30.22 in 30.0 mi SW 6.9 mph - N/A   Partly Cloudy
12:00 PM 39.2 °F 35.0 °F 24.8 °F 56% 30.23 in 30.0 mi WSW 5.8 mph - N/A   Partly Cloudy
1:00 PM 42.8 °F 37.0 °F 24.8 °F 49% 30.23 in 30.0 mi West 10.4 mph - N/A   Partly Cloudy
2:00 PM 44.6 °F 38.4 °F 21.2 °F 39% 30.23 in 30.0 mi NW 12.7 mph - N/A   Partly Cloudy
3:00 PM 44.6 °F 38.8 °F 17.6 °F 34% 30.24 in 30.0 mi WNW 11.5 mph - N/A   Partly Cloudy
4:00 PM 44.6 °F 40.7 °F 17.6 °F 34% 30.25 in 30.0 mi WNW 6.9 mph - N/A   Partly Cloudy
5:00 PM -49 °F - -58 °F 37% 30.47 in - SSW 2.3 mph - -  
5:00 PM 42.8 °F 40.1 °F 15.8 °F 34% 30.25 in 30.0 mi WNW 4.6 mph - N/A   Partly Cloudy
6:00 PM 37.4 °F - 17.6 °F 45% 30.25 in 30.0 mi Calm Calm - N/A   Overcast
7:00 PM 30.2 °F - 21.2 °F 69% 30.27 in 15.0 mi East 2.3 mph - N/A   Overcast
8:00 PM 32.0 °F - 23.0 °F 69% 30.27 in 15.0 mi South 2.3 mph - N/A   Overcast
9:00 PM 28.4 °F - 23.0 °F 80% 30.25 in 9.0 mi South 2.3 mph - N/A   Clear
10:00 PM 26.6 °F 20.0 °F 23.0 °F 86% 30.22 in 9.0 mi SSW 5.8 mph - N/A   Clear
11:00 PM -49 °F - -57 °F 40% 30.46 in - South 5.8 mph - -  
11:00 PM 26.6 °F 20.0 °F 23.0 °F 86% 30.18 in 9.0 mi South 5.8 mph - N/A   Clear